This is the latest recevied weather packets stored in our database for station/object KE8GJZ-2. If no packets are shown the sender has not sent any weather packets the latest 10 day(s).
| Time | Temp. | Humidity | Pressure | Rain* | Wind** | Luminosity | Snow |
|---|---|---|---|---|---|---|---|
| 1777510324 | 6.67° C | 97% | 1013.4 hPa | 0 mm | - | 0 W/m² | - |
| 1777510021 | 6.67° C | 97% | 1013.3 hPa | 0 mm | - | 0 W/m² | - |
| 1777509717 | 6.67° C | 97% | 1013.4 hPa | 0 mm | - | 0 W/m² | - |
| 1777509413 | 6.67° C | 97% | 1013.1 hPa | 0 mm | - | 0 W/m² | - |
| 1777509111 | 6.67° C | 97% | 1013.3 hPa | 0 mm | - | 1 W/m² | - |
| 1777508808 | 7.22° C | 97% | 1013 hPa | 0 mm | - | 3 W/m² | - |
| 1777508505 | 7.22° C | 97% | 1013.4 hPa | 0 mm | - | 2 W/m² | - |
| 1777508202 | 7.22° C | 97% | 1013.3 hPa | 0 mm | - | 4 W/m² | - |
| 1777507898 | 7.22° C | 96% | 1013.3 hPa | 0 mm | - | 6 W/m² | - |
| 1777507596 | 7.22° C | 96% | 1013.3 hPa | 0 mm | - | 7 W/m² | - |
| 1777507292 | 7.22° C | 96% | 1013.3 hPa | 0 mm | - | 10 W/m² | - |
| 1777506990 | 7.22° C | 96% | 1012.9 hPa | 0 mm | - | 15 W/m² | - |
| 1777506687 | 7.22° C | 96% | 1012.9 hPa | 0 mm | - | 15 W/m² | - |
| 1777506383 | 7.22° C | 96% | 1013.1 hPa | 0 mm | - | 21 W/m² | - |
| 1777506080 | 7.22° C | 96% | 1013 hPa | 0 mm | - | 25 W/m² | - |
| 1777505775 | 7.78° C | 95% | 1012.8 hPa | 0 mm | - | 27 W/m² | - |
| 1777505472 | 7.78° C | 95% | 1012.8 hPa | 0 mm | - | 26 W/m² | - |
| 1777505169 | 7.78° C | 95% | 1012.7 hPa | 0 mm | - | 27 W/m² | - |
| 1777504866 | 7.78° C | 95% | 1012.7 hPa | 0 mm | - | 27 W/m² | - |
| 1777504563 | 7.78° C | 95% | 1012.7 hPa | 0 mm | - | 37 W/m² | - |
| 1777504258 | 7.78° C | 94% | 1012.8 hPa | 0 mm | - | 47 W/m² | - |
| 1777503954 | 8.33° C | 94% | 1012.8 hPa | 0 mm | - | 41 W/m² | - |
| 1777503650 | 8.33° C | 94% | 1012.7 hPa | 0 mm | - | 43 W/m² | - |
| 1777503348 | 8.33° C | 94% | 1012.7 hPa | 0 mm | - | 47 W/m² | - |
| 1777503043 | 8.89° C | 94% | 1012.7 hPa | 0 mm | - | 57 W/m² | - |
* Rain latest hour (hover to see other rain measurements)
** Current wind speed in m/s (hover to see current wind gust speed)